JCSAT-17

Last updated on Tue Oct 15 2024 00:02:41 GMT+0000 (Coordinated Universal Time)

1 45245U 20013A 24288.51786094 -.00000324 00000+0 00000+0 0 9998 2 45245 5.5322 350.9424 0003818 205.7710 149.2759 1.00270793 17103
UTC large
Height (km)
Speed (km/s)
/
Latitude / Longitude
Inclination (degrees)
Orbital Period (minutes)
Azimuth
Elevation
Range (km)
Doppler Factor

Next 0 passes for location: London (51.5072 / 0.1276)

Sorry there are no passes over London.